Weather History for Tallahassee, FL

Change the Weather History Date:

Thursday, February 14, 2013

  Actual Average Record
Temperature  
Mean Temperature 44 °F 54 °F  
Max Temperature 51 °F 67 °F 86 °F (1932)
Min Temperature 37 °F 42 °F 13 °F (1899)
Degree Days  
Heating Degree Days 21    
Month to date heating degree days 111  
Since 1 July heating degree days 829  
Cooling Degree Days 0    
Month to date cooling degree days 8  
Year to date cooling degree days 42  
Moisture  
Dew Point 40 °F    
Average Humidity 77    
Maximum Humidity 92    
Minimum Humidity 61    
Precipitation  
Precipitation 0.01 in 0.16 in 2.82 in (1997)
Month to date precipitation 0.62 2.22  
Year to date precipitation 1.47 6.56  
Sea Level Pressure  
Sea Level Pressure 30.06 in    
Wind  
Wind Speed 4 mph (NNW)    
Max Wind Speed 13 mph    
Max Gust Speed 16 mph    
Visibility 10 miles    
Events Rain    
T = Trace of Precipitation, MM = Missing Value Source: NWS Daily Summary

Daily Weather History Graph

Daily Weather History Graph

Search for Another Location

Airport:

Trip Planner

Search our weather history database for the weather conditions in past years. The results will help you decide how hot, cold, wet, or windy it might be!

Date:

Astronomy

Feb. 14, 2013 Rise Set
Actual Time 7:18 AM EST 6:25 PM EST
Civil Twilight 6:53 AM EST 6:49 PM EST
Nautical Twilight 6:25 AM EST 7:17 PM EST
Astronomical Twilight 5:57 AM EST 7:45 PM EST
Moon 9:43 AM EST (2/14) 11:01 PM EST (2/14)
Length of Visible Light 11h 55m
Length of Day
11h 06m
Waxing Crescent, 21% of the Moon is Illuminated
Feb 14
Waxing Crescent
Feb 17
First Quarter
Feb 25
Full
Mar 4
Last Quarter
Mar 11
New

Hourly Weather History & Observations

Time (EST) Temp. Windchill Dew Point Humidity Pressure Visibility Wind Dir Wind Speed Gust Speed Precip Events Conditions
12:53 AM 50.0 °F - 45.0 °F 83% 30.03 in 10.0 mi NW 4.6 mph - 0.00 in Rain Light Rain
1:53 AM 50.0 °F - 46.0 °F 86% 30.00 in 10.0 mi NNW 4.6 mph - 0.00 in Rain Light Rain
2:53 AM 50.0 °F - 46.0 °F 86% 29.99 in 10.0 mi NNW 5.8 mph - 0.01 in   Partly Cloudy
3:53 AM 48.9 °F - 45.0 °F 86% 29.98 in 10.0 mi North 6.9 mph - N/A   Clear
4:53 AM 48.9 °F - 45.0 °F 86% 30.01 in 10.0 mi WNW 4.6 mph - N/A   Scattered Clouds
5:53 AM 48.0 °F - 43.0 °F 83% 29.99 in 10.0 mi North 5.8 mph - N/A   Overcast
6:53 AM 48.0 °F - 43.0 °F 83% 30.03 in 10.0 mi NNW 5.8 mph - N/A   Overcast
7:53 AM 46.9 °F - 42.1 °F 83% 30.06 in 10.0 mi Calm Calm - N/A   Mostly Cloudy
8:53 AM 46.9 °F - 41.0 °F 80% 30.09 in 10.0 mi Calm Calm - N/A   Scattered Clouds
9:53 AM 46.9 °F - 41.0 °F 80% 30.12 in 10.0 mi North 5.8 mph - N/A   Partly Cloudy
10:14 AM 48.2 °F - 41.0 °F 76% 30.11 in 10.0 mi North 6.9 mph - N/A   Mostly Cloudy
10:27 AM 48.2 °F - 39.2 °F 71% 30.12 in 10.0 mi North 5.8 mph - N/A   Scattered Clouds
10:53 AM 48.0 °F - 37.9 °F 68% 30.10 in 10.0 mi North 9.2 mph - N/A   Scattered Clouds
11:53 AM 48.9 °F - 39.0 °F 69% 30.12 in 10.0 mi North 5.8 mph - N/A   Scattered Clouds
12:53 PM 48.0 °F - 37.9 °F 68% 30.07 in 10.0 mi NNE 9.2 mph - N/A   Partly Cloudy
1:53 PM 48.9 °F - 37.9 °F 66% 30.06 in 10.0 mi NNW 9.2 mph - N/A   Clear
2:53 PM 48.9 °F - 36.0 °F 61% 30.05 in 10.0 mi NE 4.6 mph - N/A   Clear
3:53 PM 48.9 °F - 36.0 °F 61% 30.09 in 10.0 mi NNW 3.5 mph - N/A   Clear
4:53 PM 50.0 °F - 37.9 °F 63% 30.05 in 10.0 mi North 4.6 mph - N/A   Clear
5:53 PM 48.9 °F - 37.9 °F 66% 30.05 in 10.0 mi NNW 3.5 mph - N/A   Clear
6:53 PM 48.0 °F - 39.9 °F 74% 30.08 in 10.0 mi WNW 3.5 mph - N/A   Clear
7:53 PM 46.0 °F - 39.9 °F 79% 30.10 in 10.0 mi Calm Calm - N/A   Clear
8:53 PM 46.0 °F - 39.9 °F 79% 30.08 in 10.0 mi Calm Calm - N/A   Clear
9:53 PM 41.0 °F - 37.0 °F 86% 30.11 in 9.0 mi Calm Calm - N/A   Clear
10:53 PM 37.9 °F - 35.1 °F 89% 30.11 in 10.0 mi Calm Calm - N/A   Clear
11:53 PM 39.0 °F 36.8 °F 34.0 °F 82% 30.09 in 10.0 mi NNW 3.5 mph - N/A   Clear